ROMMA est une association bénévole à but non lucratif. Votre soutien est indispensable : ADHERER à ROMMA ou FAIRE un DON

Saint-Léger-les-Mélèzes - (05, Hautes-Alpes)

Champsaur (1245 m)   Longitude: 6° 11' 42" E    Latitude: 44° 38' 38" N Station partenaire n°51
 

Détail journalier du     <<     >>

Température Humidité Vent Dir Rafale Dir. rafale Ensol.
Heure (°C) (%) (km/h) (km/h) (min)
01:00 4.6476S13S0
02:00 4.4465S13S0
03:00 6.3344S10S0
04:00 4.6426S15S0
05:00 4.3435S10S0
06:00 3.8423S8S0
07:00 3.8415S10S0
08:00 3.7456S11S0
09:00 3.8422S8S0
10:00 5.8402S6S0
11:00 8.2332S6S0
12:00 10.82803S40
13:00 13.12903S60
14:00 12.8261S11OSO60
15:00 13.4262SSO10SSE60
16:00 12.2313OSO13OSO50
17:00 10.6372S8SO0
18:00 8.2424S10S0
19:00 7.1465S10S0
20:00 5.7485S10S0
21:00 5.3516S11S0
22:00 4.9516S10S0
23:00 4.3546S10S0
minuit 4.3556S10S0

Graphique du 16-02-2019

 

Serveur OMMA